FW2782 Weather Reports


time (UTC)temp
F
wind
direction
speed
knots
gust
knots
rain 1hr
in
rain 24hr
in
rain mn
in
humidity
%
barometer
mb
20260507213058 55 49 0.0 1.7 0.00 0.00 0.00 85 1014.6
20260507211642 56 49 0.9 1.7 0.00 0.00 0.00 82 1014.3
20260507210048 57 49 0.0 1.7 0.00 0.00 0.00 80 1014.1
20260507204540 58 49 0.0 1.7 0.00 0.00 0.00 78 1014.0
20260507203044 60 49 0.0 1.7 0.00 0.00 0.00 75 1013.9
20260507201539 61 49 0.0 1.7 0.00 0.00 0.00 73 1013.7
20260507200036 62 49 0.0 1.7 0.00 0.00 0.00 70 1013.6
20260507194604 63 49 0.0 1.7 0.00 0.00 0.00 67 1013.6
20260507193038 63 42 0.0 2.6 0.00 0.00 0.00 65 1013.4
20260507191535 64 90 0.0 2.6 0.00 0.00 0.00 63 1013.1
20260507190034 65 121 0.0 2.6 0.00 0.00 0.00 62 1013.0
20260507184537 66 123 1.7 3.5 0.00 0.00 0.00 60 1013.0
20260507183043 67 193 0.0 0.0 0.00 0.00 0.00 60 1012.8
20260507181532 67 194 0.0 0.9 0.00 0.00 0.00 59 1012.4
20260507180035 67 194 0.0 0.9 0.00 0.00 0.00 57 1012.2
20260507174530 68 193 0.0 0.9 0.00 0.00 0.00 57 1012.2
20260507173040 68 227 0.0 2.6 0.00 0.00 0.00 56 1012.1
20260507171540 69 134 0.0 2.6 0.00 0.00 0.00 57 1011.9
20260507170026 70 171 0.0 2.6 0.00 0.00 0.00 55 1011.9
20260507164531 70 146 0.9 2.6 0.00 0.00 0.00 56 1011.9
20260507163025 71 120 1.7 6.1 0.00 0.00 0.00 53 1011.9
20260507161527 73 123 1.7 4.3 0.00 0.00 0.00 52 1011.8
20260507160021 73 137 1.7 6.1 0.00 0.00 0.00 52 1011.7
20260507154521 74 158 1.7 6.1 0.00 0.00 0.00 51 1012.0
20260507153017 74 103 1.7 8.7 0.00 0.00 0.00 50 1011.8
20260507151516 74 101 1.7 11.3 0.00 0.00 0.00 52 1011.7
20260507150016 75 154 1.7 7.0 0.00 0.00 0.00 50 1011.6
20260507144514 76 137 0.9 7.8 0.00 0.00 0.00 53 1011.7
20260507143019 77 152 1.7 8.7 0.00 0.00 0.00 50 1011.6
20260507141510 76 155 0.9 7.0 0.00 0.00 0.00 52 1011.7
20260507140009 77 147 1.7 8.7 0.00 0.00 0.00 48 1011.6
20260507134515 77 137 2.6 7.8 0.00 0.00 0.00 48 1011.8
20260507133012 78 157 3.5 7.8 0.00 0.00 0.00 47 1011.9
20260507131506 77 145 1.7 7.0 0.00 0.00 0.00 43 1012.2
20260507130002 76 121 2.6 7.8 0.00 0.00 0.00 42 1012.2
20260507124504 76 119 2.6 6.1 0.00 0.00 0.00 45 1012.4
20260507123000 76 114 1.7 7.0 0.00 0.00 0.00 41 1012.4
20260507121604 75 107 2.6 9.6 0.00 0.00 0.00 43 1012.2
20260507120103 75 75 1.7 7.8 0.00 0.00 0.00 45 1012.3
20260507114607 74 170 0.9 4.3 0.00 0.00 0.00 49 1012.2
20260507113055 75 322 1.7 7.8 0.00 0.00 0.00 42 1012.2
20260507111551 74 114 1.7 7.0 0.00 0.00 0.00 47 1012.4
20260507110058 73 88 0.9 7.8 0.00 0.00 0.00 44 1012.5
20260507104548 72 178 2.6 8.7 0.00 0.00 0.00 51 1012.7
20260507103048 72 98 0.9 7.8 0.00 0.00 0.00 47 1012.9
20260507101550 73 13 0.0 6.1 0.00 0.00 0.00 53 1013.1
20260507100044 71 80 2.6 7.0 0.00 0.00 0.00 52 1013.0
20260507094550 72 85 1.7 6.1 0.00 0.00 0.00 52 1013.0
20260507093039 70 115 1.7 5.2 0.00 0.00 0.00 53 1013.1
20260507091537 69 109 1.7 5.2 0.00 0.00 0.00 56 1013.1
20260507090038 69 360 0.9 5.2 0.00 0.00 0.00 58 1013.2
20260507084534 69 323 1.7 7.8 0.00 0.00 0.00 60 1013.1
20260507083032 68 130 1.7 4.3 0.00 0.00 0.00 67 1013.0
20260507081535 67 129 1.7 4.3 0.00 0.00 0.00 64 1013.1
20260507080024 65 138 0.9 3.5 0.00 0.00 0.00 69 1013.1
20260507074529 64 115 1.7 3.5 0.00 0.00 0.00 67 1013.1
20260507073017 62 54 0.0 2.6 0.00 0.00 0.00 74 1013.3
20260507071513 60 284 1.7 3.5 0.00 0.00 0.00 75 1013.2
20260507070012 59 113 0.9 5.2 0.00 0.00 0.00 82 1013.1
20260507064505 56 132 0.0 2.6 0.00 0.00 0.00 87 1013.1
20260507063002 54 360 0.0 3.5 0.00 0.00 0.00 91 1013.2
20260507061502 51 18 0.0 0.0 0.00 0.00 0.00 95 1013.1
20260507060100 49 17 0.0 0.0 0.00 0.00 0.00 95 1013.0
20260507054559 48 17 0.0 0.0 0.00 0.00 0.00 94 1013.1
20260507053058 47 17 0.0 0.0 0.00 0.00 0.00 93 1012.9
20260507051557 47 17 0.0 0.0 0.00 0.00 0.00 93 1012.8
20260507050059 46 16 0.0 0.0 0.00 0.00 0.00 93 1012.7
20260507044555 47 16 0.0 0.0 0.00 0.00 0.00 93 1012.6
20260507043057 47 30 0.0 0.0 0.00 0.00 0.00 92 1012.6
20260507041558 47 30 0.0 0.0 0.00 0.00 0.00 93 1012.5
20260507034605 48 65 0.0 0.0 0.00 0.01 0.00 91 1012.5
20260507033101 49 68 0.0 0.0 0.00 0.01 0.00 90 1012.6
20260507031543 49 68 0.0 0.0 0.00 0.01 0.00 90 1012.5
20260507030040 50 68 0.0 0.0 0.00 0.01 0.00 90 1012.5
20260507024550 50 69 0.0 0.0 0.00 0.01 0.00 89 1012.6
20260507023039 51 69 0.0 0.0 0.00 0.01 0.00 89 1012.6
20260507021534 51 68 0.0 0.0 0.00 0.01 0.00 90 1012.4
20260507020036 51 68 0.0 0.0 0.00 0.35 0.00 90 1012.6
20260507014533 51 69 0.0 4.3 0.00 0.35 0.00 90 1012.6
20260507013036 51 258 0.0 2.6 0.00 0.35 0.00 89 1012.6
20260507011531 51 355 0.0 0.9 0.00 0.35 0.00 88 1012.6
20260507010036 52 355 0.0 0.9 0.00 0.50 0.00 87 1012.7
20260507004526 52 355 0.9 3.5 0.00 0.50 0.00 88 1012.7
20260507003022 53 335 0.0 1.7 0.00 0.50 0.00 86 1012.8
20260507001520 53 355 0.0 0.0 0.00 0.50 0.00 86 1013.0
20260507000020 53 355 0.9 2.6 0.00 0.50 0.00 85 1013.0
20260506234536 54 5 0.0 3.5 0.00 0.50 0.00 85 1013.1
20260506233019 54 346 2.6 5.2 0.00 0.50 0.00 85 1013.2
20260506231517 53 355 1.7 4.3 0.00 0.50 0.00 85 1013.3
20260506230016 53 344 1.7 3.5 0.00 0.50 0.00 85 1013.3
20260506224524 53 5 0.9 3.5 0.00 0.50 0.00 85 1013.3
20260506223012 53 307 0.9 4.3 0.00 0.50 0.00 84 1013.3
20260506221512 54 355 0.9 3.5 0.00 0.50 0.00 83 1013.2
20260506220017 54 334 0.0 1.7 0.00 0.53 0.50 82 1012.9
20260506214506 54 331 0.0 2.6 0.00 0.53 0.50 82 1012.7